Weather History for Buffalo, MN

Change the Weather History Date:

Tuesday, January 14, 2014

  Actual Average (KSTC) Record (KSTC)
Temperature  
Mean Temperature 16 °F 11 °F  
Max Temperature 27 °F 21 °F 44 °F (1944)
Min Temperature 5 °F 1 °F -30 °F (1982)
Degree Days  
Heating Degree Days 49 54  
Month to date heating degree days 749  
Since 1 July heating degree days 4196  
Cooling Degree Days 0 0  
Month to date cooling degree days 0  
Year to date cooling degree days 0  
Moisture  
Dew Point 12 °F    
Average Humidity 79    
Maximum Humidity 93    
Minimum Humidity 63    
Precipitation  
Precipitation 0.00 in 0.02 in 0.57 in (1952)
Month to date precipitation 0.33  
Year to date precipitation 0.33  
Snow  
Snow 0.00 in 0.30 in 3.00 in (1952)
Month to date snowfall 4.2  
Since 1 July snowfall 22.8  
Snow Depth -    
Sea Level Pressure  
Sea Level Pressure 29.86 in    
Wind  
Wind Speed 10 mph (NW)    
Max Wind Speed 18 mph    
Max Gust Speed 25 mph    
Visibility 6 miles    
Events Snow    
T = Trace of Precipitation, MM = Missing Value Source: NWS Daily Summary

Daily Weather History Graph

Daily Weather History Graph

Search for Another Location

Airport:

Trip Planner

Search our weather history database for the weather conditions in past years. The results will help you decide how hot, cold, wet, or windy it might be!

Date:

Astronomy

Jan. 14, 2014 Rise Set
Actual Time 7:51 AM CST 4:58 PM CST
Civil Twilight 7:18 AM CST 5:31 PM CST
Nautical Twilight 6:41 AM CST 6:07 PM CST
Astronomical Twilight 6:06 AM CST 6:43 PM CST
Moon 4:05 PM CST (1/14) 6:24 AM CST (1/14)
Length of Visible Light 10h 13m
Length of Day
9h 07m
Waxing Gibbous, 98% of the Moon is Illuminated
Jan 14
Waxing Gibbous
Jan 15
Full
Jan 23
Last Quarter
Jan 30
New
Feb 6
First Quarter

Hourly Weather History & Observations

Time (CST) Temp. Windchill Dew Point Humidity Pressure Visibility Wind Dir Wind Speed Gust Speed Precip Events Conditions
12:16 AM 26.2 °F 19.6 °F 23.9 °F 91% 29.50 in 7.0 mi ENE 5.8 mph - N/A   Overcast
12:35 AM 27.0 °F 20.5 °F 24.3 °F 90% 29.49 in 7.0 mi ENE 5.8 mph - N/A   Overcast
12:56 AM 27.0 °F 20.5 °F 24.4 °F 90% 29.49 in 4.0 mi ENE 5.8 mph - N/A Snow Light Snow
1:16 AM 26.6 °F 20.0 °F 24.4 °F 92% 29.49 in 1.2 mi NE 5.8 mph - N/A Snow Light Snow
1:35 AM 26.6 °F 20.0 °F 24.6 °F 92% 29.49 in 1.2 mi NNE 5.8 mph - N/A Snow Light Snow
1:56 AM 25.7 °F 19.0 °F 23.9 °F 93% 29.48 in 1.2 mi NNE 5.8 mph - N/A Snow Light Snow
2:15 AM 25.3 °F 19.7 °F 23.5 °F 93% 29.48 in 1.5 mi NE 4.6 mph - N/A Snow Light Snow
2:36 AM 25.3 °F 21.1 °F 23.5 °F 93% 29.49 in 1.2 mi NNE 3.5 mph - N/A Snow Snow
2:56 AM 25.2 °F 20.9 °F 23.4 °F 93% 29.50 in 0.8 mi North 3.5 mph - N/A Snow Snow
3:15 AM 24.8 °F 17.9 °F 23.0 °F 93% 29.51 in 1.0 mi NNW 5.8 mph - N/A Snow Snow
3:36 AM 24.8 °F 16.1 °F 23.0 °F 93% 29.51 in 1.2 mi NNW 8.1 mph - N/A Snow Light Snow
3:56 AM 23.9 °F 14.2 °F 22.1 °F 93% 29.52 in 1.8 mi NNW 9.2 mph - N/A Snow Light Snow
4:15 AM 23.7 °F 11.5 °F 21.7 °F 92% 29.54 in 2.0 mi NNW 13.8 mph - N/A Snow Light Snow
4:36 AM 22.1 °F 9.5 °F 19.9 °F 91% 29.56 in 2.0 mi NNW 13.8 mph 18.4 mph N/A Snow Light Snow
4:55 AM 21.9 °F 10.4 °F 19.4 °F 90% 29.58 in 2.0 mi NNW 11.5 mph 19.6 mph N/A Snow Light Snow
5:16 AM 21.9 °F 9.2 °F 19.4 °F 90% 29.60 in 1.8 mi NNW 13.8 mph - N/A Snow Light Snow
5:36 AM 21.9 °F 8.7 °F 19.4 °F 90% 29.62 in 4.0 mi NNW 15.0 mph - N/A Snow Light Snow
5:55 AM 21.9 °F 10.4 °F 18.9 °F 88% 29.64 in 3.0 mi NNW 11.5 mph 17.3 mph N/A Snow Light Snow
6:16 AM 21.6 °F 9.3 °F 18.3 °F 87% 29.66 in 4.0 mi NW 12.7 mph 18.4 mph N/A Snow Light Snow
6:36 AM 21.2 °F 8.3 °F 18.1 °F 88% 29.68 in 2.5 mi NW 13.8 mph 19.6 mph N/A Snow Light Snow
6:55 AM 21.2 °F 7.8 °F 18.3 °F 89% 29.69 in 1.5 mi NW 15.0 mph 19.6 mph N/A Snow Light Snow
7:16 AM 21.0 °F 9.9 °F 18.1 °F 89% 29.71 in 1.5 mi NW 10.4 mph 23.0 mph N/A Snow Light Snow
7:36 AM 20.3 °F 7.2 °F 16.9 °F 87% 29.72 in 2.5 mi NW 13.8 mph 19.6 mph N/A Snow Light Snow
7:55 AM 20.3 °F 7.7 °F 16.7 °F 86% 29.74 in 3.0 mi NW 12.7 mph 19.6 mph N/A Snow Light Snow
8:16 AM 19.4 °F 7.9 °F 15.6 °F 85% 29.76 in 2.0 mi NW 10.4 mph 23.0 mph N/A Snow Light Snow
8:36 AM 19.4 °F 6.6 °F 15.1 °F 83% 29.77 in 2.5 mi NW 12.7 mph 18.4 mph N/A Snow Light Snow
8:56 AM 19.2 °F 6.4 °F 14.7 °F 83% 29.79 in 3.0 mi NW 12.7 mph 18.4 mph N/A Snow Light Snow
9:16 AM 19.4 °F 6.6 °F 14.9 °F 83% 29.81 in 3.0 mi NW 12.7 mph 17.3 mph N/A   Overcast
9:35 AM 19.2 °F 5.8 °F 14.5 °F 82% 29.82 in 3.0 mi NW 13.8 mph 18.4 mph N/A Snow Light Snow
9:56 AM 18.9 °F 4.8 °F 13.6 °F 80% 29.84 in 1.5 mi NW 15.0 mph 23.0 mph N/A Snow Light Snow
10:15 AM 18.5 °F 5.5 °F 12.7 °F 78% 29.85 in 2.5 mi NW 12.7 mph 21.9 mph N/A Snow Light Snow
10:36 AM 18.5 °F 4.9 °F 13.1 °F 79% 29.87 in 1.8 mi NW 13.8 mph 21.9 mph N/A Snow Light Snow
10:56 AM 18.3 °F 2.6 °F 12.2 °F 77% 29.88 in 2.0 mi NW 18.4 mph 24.2 mph N/A Snow Light Snow
11:15 AM 18.7 °F 5.7 °F 11.1 °F 72% 29.88 in 2.5 mi NNW 12.7 mph 24.2 mph N/A   Haze
11:36 AM 19.2 °F 4.7 °F 11.1 °F 71% 29.89 in 5.0 mi NW 16.1 mph 25.3 mph N/A   Haze
11:56 AM 19.9 °F 6.2 °F 10.4 °F 67% 29.90 in 7.0 mi NNW 15.0 mph 21.9 mph N/A   Mostly Cloudy
12:15 PM 19.2 °F 4.7 °F 10.0 °F 67% 29.91 in 10.0 mi NW 16.1 mph 21.9 mph N/A   Scattered Clouds
12:36 PM 19.2 °F 7.7 °F 10.2 °F 68% 29.91 in 10.0 mi NW 10.4 mph 20.7 mph N/A   Clear
12:56 PM 19.0 °F 7.5 °F 9.9 °F 67% 29.92 in 10.0 mi NW 10.4 mph 24.2 mph N/A   Clear
1:15 PM 18.5 °F 3.3 °F 9.1 °F 67% 29.93 in 10.0 mi NW 17.3 mph 24.2 mph N/A   Clear
1:36 PM 19.0 °F 5.0 °F 9.0 °F 65% 29.94 in 10.0 mi NW 15.0 mph 20.7 mph N/A   Clear
1:56 PM 19.2 °F 6.4 °F 8.8 °F 64% 29.95 in 10.0 mi NNW 12.7 mph 19.6 mph N/A   Clear
2:15 PM 19.0 °F 3.6 °F 8.2 °F 63% 29.95 in 10.0 mi NNW 18.4 mph 25.3 mph N/A   Clear
2:36 PM 18.5 °F 4.3 °F 7.9 °F 63% 29.96 in 10.0 mi NW 15.0 mph - N/A   Clear
2:56 PM 17.6 °F 5.0 °F 7.3 °F 64% 29.98 in 10.0 mi NNW 11.5 mph 20.7 mph N/A   Clear
3:15 PM 19.0 °F 6.8 °F 8.2 °F 63% 29.99 in 10.0 mi NW 11.5 mph 18.4 mph N/A   Clear
3:36 PM 18.3 °F 6.6 °F 8.4 °F 65% 30.00 in 10.0 mi NW 10.4 mph - N/A   Clear
3:56 PM 18.3 °F 4.6 °F 8.2 °F 65% 30.01 in 10.0 mi NW 13.8 mph 21.9 mph N/A   Mostly Cloudy
4:16 PM 17.6 °F 5.0 °F 7.5 °F 65% 30.02 in 10.0 mi WNW 11.5 mph 16.1 mph N/A   Scattered Clouds
4:36 PM 16.7 °F 4.5 °F 7.7 °F 68% 30.03 in 10.0 mi WNW 10.4 mph - N/A   Scattered Clouds
4:56 PM 16.7 °F 4.5 °F 7.5 °F 67% 30.04 in 10.0 mi WNW 10.4 mph 16.1 mph N/A   Scattered Clouds
5:16 PM 16.0 °F 5.3 °F 7.2 °F 68% 30.04 in 10.0 mi WNW 8.1 mph 16.1 mph N/A   Scattered Clouds
5:36 PM 15.4 °F 4.6 °F 7.5 °F 71% 30.05 in 10.0 mi WNW 8.1 mph - N/A   Mostly Cloudy
5:55 PM 14.5 °F 2.7 °F 6.8 °F 71% 30.06 in 10.0 mi WNW 9.2 mph - N/A   Scattered Clouds
6:16 PM 13.6 °F 0.0 °F 6.8 °F 74% 30.07 in 10.0 mi WNW 11.5 mph - N/A   Clear
6:35 PM 12.9 °F -0.9 °F 6.6 °F 76% 30.08 in 10.0 mi WNW 11.5 mph 17.3 mph N/A   Clear
6:56 PM 12.0 °F -2.0 °F 5.9 °F 76% 30.10 in 10.0 mi WNW 11.5 mph 16.1 mph N/A   Clear
7:16 PM 10.9 °F -2.6 °F 4.6 °F 76% 30.10 in 10.0 mi WNW 10.4 mph 17.3 mph N/A   Clear
7:35 PM 10.4 °F -4.1 °F 3.6 °F 74% 30.10 in 10.0 mi NW 11.5 mph - N/A   Clear
7:56 PM 9.9 °F -2.2 °F 3.2 °F 74% 30.10 in 10.0 mi WNW 8.1 mph - N/A   Clear
8:16 PM 9.5 °F -3.5 °F 3.0 °F 75% 30.11 in 10.0 mi WNW 9.2 mph - N/A   Clear
8:36 PM 9.0 °F -4.2 °F 2.7 °F 76% 30.12 in 10.0 mi WNW 9.2 mph - N/A   Clear
8:56 PM 8.6 °F -4.7 °F 2.3 °F 76% 30.12 in 10.0 mi WNW 9.2 mph - N/A   Clear
9:15 PM 7.9 °F -5.5 °F 1.4 °F 75% 30.13 in 10.0 mi NW 9.2 mph - N/A   Clear
9:36 PM 7.7 °F -6.6 °F 1.0 °F 74% 30.13 in 10.0 mi WNW 10.4 mph - N/A   Clear
9:56 PM 7.3 °F -7.1 °F 0.7 °F 74% 30.14 in 10.0 mi NW 10.4 mph - N/A   Clear
10:16 PM 7.3 °F -6.2 °F 1.0 °F 75% 30.14 in 10.0 mi WNW 9.2 mph - N/A   Clear
10:36 PM 6.8 °F -8.6 °F 0.7 °F 76% 30.14 in 10.0 mi WNW 11.5 mph 16.1 mph N/A   Clear
10:56 PM 6.6 °F -8.8 °F 0.5 °F 76% 30.14 in 10.0 mi WNW 11.5 mph - N/A   Clear
11:16 PM 6.1 °F -10.2 °F -0.0 °F 76% 30.13 in 10.0 mi WNW 12.7 mph - N/A   Clear
11:36 PM 5.9 °F -8.9 °F 0.1 °F 77% 30.13 in 10.0 mi WNW 10.4 mph - N/A   Clear
11:56 PM 5.5 °F -10.2 °F -0.4 °F 77% 30.14 in 10.0 mi WNW 11.5 mph - N/A   Clear